Year,Month,Day,Hour,Minute,Value (Times are PST for barometer in hPa)
2013,09,30,00,00,988.01
2013,09,30,00,01,987.99
2013,09,30,00,02,988.05
2013,09,30,00,03,988.05
2013,09,30,00,04,988.06
2013,09,30,00,05,988.18
2013,09,30,00,06,988.22
2013,09,30,00,07,988.29
2013,09,30,00,08,988.34
2013,09,30,00,09,988.25
2013,09,30,00,10,988.25
2013,09,30,00,11,988.25
2013,09,30,00,12,988.29
2013,09,30,00,13,988.36
2013,09,30,00,14,988.43
2013,09,30,00,15,988.50
2013,09,30,00,16,988.54
2013,09,30,00,17,988.45
2013,09,30,00,18,988.42
2013,09,30,00,19,988.49
2013,09,30,00,20,988.52
2013,09,30,00,21,988.55
2013,09,30,00,22,988.53
2013,09,30,00,23,988.59
2013,09,30,00,24,988.59
2013,09,30,00,25,988.62
2013,09,30,00,26,988.63
2013,09,30,00,27,988.73
2013,09,30,00,28,988.84
2013,09,30,00,29,989.04
2013,09,30,00,30,989.16
2013,09,30,00,31,989.23
2013,09,30,00,32,989.31
2013,09,30,00,33,989.37
2013,09,30,00,34,989.40
2013,09,30,00,35,989.37
2013,09,30,00,36,989.33
2013,09,30,00,37,989.30
2013,09,30,00,38,989.27
2013,09,30,00,39,989.27
2013,09,30,00,40,989.27
2013,09,30,00,41,989.30
2013,09,30,00,42,989.27
2013,09,30,00,43,989.27
2013,09,30,00,44,989.30
2013,09,30,00,45,989.29
2013,09,30,00,46,989.23
2013,09,30,00,47,989.20
2013,09,30,00,48,989.16
2013,09,30,00,49,989.16
2013,09,30,00,50,989.16
2013,09,30,00,51,989.16
2013,09,30,00,52,989.16
2013,09,30,00,53,989.20
2013,09,30,00,54,989.20
2013,09,30,00,55,989.19
2013,09,30,00,56,989.13
2013,09,30,00,57,989.17
2013,09,30,00,58,989.28
2013,09,30,00,59,989.36
2013,09,30,01,00,989.27
2013,09,30,01,01,989.31
2013,09,30,01,02,989.56
2013,09,30,01,03,989.78
2013,09,30,01,04,989.88
2013,09,30,01,05,989.91
2013,09,30,01,06,990.01
2013,09,30,01,07,990.01
2013,09,30,01,08,990.01
2013,09,30,01,09,990.00
2013,09,30,01,10,989.94
2013,09,30,01,11,989.92
2013,09,30,01,12,990.00
2013,09,30,01,13,990.15
2013,09,30,01,14,990.18
2013,09,30,01,15,990.20
2013,09,30,01,16,990.15
2013,09,30,01,17,990.10
2013,09,30,01,18,990.01
2013,09,30,01,19,990.04
2013,09,30,01,20,990.08
2013,09,30,01,21,990.11
2013,09,30,01,22,990.14
2013,09,30,01,23,990.07
2013,09,30,01,24,989.98
2013,09,30,01,25,989.99
2013,09,30,01,26,990.12
2013,09,30,01,27,990.18
2013,09,30,01,28,990.18
2013,09,30,01,29,990.15
2013,09,30,01,30,990.15
2013,09,30,01,31,990.09
2013,09,30,01,32,990.19
2013,09,30,01,33,990.26
2013,09,30,01,34,990.36
2013,09,30,01,35,990.50
2013,09,30,01,36,990.56
2013,09,30,01,37,990.61
2013,09,30,01,38,990.56
2013,09,30,01,39,990.62
2013,09,30,01,40,990.69
2013,09,30,01,41,990.72
2013,09,30,01,42,990.73
2013,09,30,01,43,990.82
2013,09,30,01,44,990.80
2013,09,30,01,45,990.89
2013,09,30,01,46,990.85
2013,09,30,01,47,990.77
2013,09,30,01,48,990.89
2013,09,30,01,49,990.93
2013,09,30,01,50,990.89
2013,09,30,01,51,990.89
2013,09,30,01,52,990.93
2013,09,30,01,53,990.99
2013,09,30,01,54,991.04
2013,09,30,01,55,991.09
2013,09,30,01,56,990.99
2013,09,30,01,57,990.98
2013,09,30,01,58,990.89
2013,09,30,01,59,990.90
2013,09,30,02,00,991.03
2013,09,30,02,01,991.03
2013,09,30,02,02,991.09
2013,09,30,02,03,991.03
2013,09,30,02,04,991.06
2013,09,30,02,05,991.09
2013,09,30,02,06,991.09
2013,09,30,02,07,991.09
2013,09,30,02,08,991.06
2013,09,30,02,09,991.13
2013,09,30,02,10,991.13
2013,09,30,02,11,991.16
2013,09,30,02,12,991.13
2013,09,30,02,13,991.13
2013,09,30,02,14,991.09
2013,09,30,02,15,991.13
2013,09,30,02,16,991.13
2013,09,30,02,17,991.18
2013,09,30,02,18,991.33
2013,09,30,02,19,991.29
2013,09,30,02,20,991.23
2013,09,30,02,21,991.26
2013,09,30,02,22,991.23
2013,09,30,02,23,991.23
2013,09,30,02,24,991.27
2013,09,30,02,25,991.34
2013,09,30,02,26,991.47
2013,09,30,02,27,991.47
2013,09,30,02,28,991.50
2013,09,30,02,29,991.50
2013,09,30,02,30,991.54
2013,09,30,02,31,991.60
2013,09,30,02,32,991.60
2013,09,30,02,33,991.64
2013,09,30,02,34,991.60
2013,09,30,02,35,991.64
2013,09,30,02,36,991.67
2013,09,30,02,37,991.70
2013,09,30,02,38,991.68
2013,09,30,02,39,991.74
2013,09,30,02,40,991.70
2013,09,30,02,41,991.71
2013,09,30,02,42,991.76
2013,09,30,02,43,991.70
2013,09,30,02,44,991.73
2013,09,30,02,45,991.64
2013,09,30,02,46,991.60
2013,09,30,02,47,991.60
2013,09,30,02,48,991.57
2013,09,30,02,49,991.56
2013,09,30,02,50,991.50
2013,09,30,02,51,991.45
2013,09,30,02,52,991.27
2013,09,30,02,53,991.41
2013,09,30,02,54,991.47
2013,09,30,02,55,991.47
2013,09,30,02,56,991.47
2013,09,30,02,57,991.43
2013,09,30,02,58,991.53
2013,09,30,02,59,991.53
2013,09,30,03,00,991.58
2013,09,30,03,01,991.72
2013,09,30,03,02,991.87
2013,09,30,03,03,991.86
2013,09,30,03,04,992.01
2013,09,30,03,05,991.98
2013,09,30,03,06,992.14
2013,09,30,03,07,992.18
2013,09,30,03,08,992.18
2013,09,30,03,09,992.21
2013,09,30,03,10,992.21
2013,09,30,03,11,992.28
2013,09,30,03,12,992.31
2013,09,30,03,13,992.31
2013,09,30,03,14,992.38
2013,09,30,03,15,992.42
2013,09,30,03,16,992.38
2013,09,30,03,17,992.45
2013,09,30,03,18,992.45
2013,09,30,03,19,992.42
2013,09,30,03,20,992.38
2013,09,30,03,21,992.45
2013,09,30,03,22,992.42
2013,09,30,03,23,992.31
2013,09,30,03,24,992.31
2013,09,30,03,25,992.35
2013,09,30,03,26,992.35
2013,09,30,03,27,992.35
2013,09,30,03,28,992.52
2013,09,30,03,29,992.55
2013,09,30,03,30,992.52
2013,09,30,03,31,992.52
2013,09,30,03,32,992.55
2013,09,30,03,33,992.55
2013,09,30,03,34,992.55
2013,09,30,03,35,992.58
2013,09,30,03,36,992.58
2013,09,30,03,37,992.52
2013,09,30,03,38,992.55
2013,09,30,03,39,992.52
2013,09,30,03,40,992.58
2013,09,30,03,41,992.58
2013,09,30,03,42,992.48
2013,09,30,03,43,992.42
2013,09,30,03,44,992.38
2013,09,30,03,45,992.48
2013,09,30,03,46,992.45
2013,09,30,03,47,992.48
2013,09,30,03,48,992.45
2013,09,30,03,49,992.48
2013,09,30,03,50,992.52
2013,09,30,03,51,992.58
2013,09,30,03,52,992.58
2013,09,30,03,53,992.58
2013,09,30,03,54,992.62
2013,09,30,03,55,992.65
2013,09,30,03,56,992.62
2013,09,30,03,57,992.65
2013,09,30,03,58,992.62
2013,09,30,03,59,992.65
2013,09,30,04,00,992.79
2013,09,30,04,01,992.89
2013,09,30,04,02,992.96
2013,09,30,04,03,992.99
2013,09,30,04,04,992.96
2013,09,30,04,05,992.96
2013,09,30,04,06,992.99
2013,09,30,04,07,993.06
2013,09,30,04,08,993.16
2013,09,30,04,09,993.19
2013,09,30,04,10,993.33
2013,09,30,04,11,993.33
2013,09,30,04,12,993.40
2013,09,30,04,13,993.43
2013,09,30,04,14,993.43
2013,09,30,04,15,993.36
2013,09,30,04,16,993.33
2013,09,30,04,17,993.40
2013,09,30,04,18,993.30
2013,09,30,04,19,993.33
2013,09,30,04,20,993.30
2013,09,30,04,21,993.36
2013,09,30,04,22,993.43
2013,09,30,04,23,993.47
2013,09,30,04,24,993.43
2013,09,30,04,25,993.50
2013,09,30,04,26,993.50
2013,09,30,04,27,993.43
2013,09,30,04,28,993.56
2013,09,30,04,29,993.57
2013,09,30,04,30,993.57
2013,09,30,04,31,993.60
2013,09,30,04,32,993.67
2013,09,30,04,33,993.63
2013,09,30,04,34,993.63
2013,09,30,04,35,993.67
2013,09,30,04,36,993.70
2013,09,30,04,37,993.70
2013,09,30,04,38,993.77
2013,09,30,04,39,993.77
2013,09,30,04,40,993.77
2013,09,30,04,41,993.84
2013,09,30,04,42,993.87
2013,09,30,04,43,993.84
2013,09,30,04,44,993.80
2013,09,30,04,45,993.87
2013,09,30,04,46,993.91
2013,09,30,04,47,993.94
2013,09,30,04,48,993.97
2013,09,30,04,49,993.87
2013,09,30,04,50,993.77
2013,09,30,04,51,993.84
2013,09,30,04,52,993.91
2013,09,30,04,53,993.91
2013,09,30,04,54,993.94
2013,09,30,04,55,994.01
2013,09,30,04,56,993.97
2013,09,30,04,57,994.07
2013,09,30,04,58,994.11
2013,09,30,04,59,994.21
2013,09,30,05,00,994.31
2013,09,30,05,01,994.38
2013,09,30,05,02,994.31
2013,09,30,05,03,994.24
2013,09,30,05,04,994.28
2013,09,30,05,05,994.35
2013,09,30,05,06,994.41
2013,09,30,05,07,994.41
2013,09,30,05,08,994.41
2013,09,30,05,09,994.41
2013,09,30,05,10,994.35
2013,09,30,05,11,994.41
2013,09,30,05,12,994.41
2013,09,30,05,13,994.41
2013,09,30,05,14,994.45
2013,09,30,05,15,994.52
2013,09,30,05,16,994.58
2013,09,30,05,17,994.46
2013,09,30,05,18,994.35
2013,09,30,05,19,994.41
2013,09,30,05,20,994.31
2013,09,30,05,21,994.31
2013,09,30,05,22,994.35
2013,09,30,05,23,994.48
2013,09,30,05,24,994.55
2013,09,30,05,25,994.62
2013,09,30,05,26,994.68
2013,09,30,05,27,994.68
2013,09,30,05,28,994.75
2013,09,30,05,29,994.85
2013,09,30,05,30,994.82
2013,09,30,05,31,994.89
2013,09,30,05,32,994.92
2013,09,30,05,33,994.79
2013,09,30,05,34,994.92
2013,09,30,05,35,994.92
2013,09,30,05,36,994.92
2013,09,30,05,37,994.85
2013,09,30,05,38,994.85
2013,09,30,05,39,994.96
2013,09,30,05,40,995.02
2013,09,30,05,41,995.02
2013,09,30,05,42,994.99
2013,09,30,05,43,995.06
2013,09,30,05,44,995.06
2013,09,30,05,45,995.12
2013,09,30,05,46,995.23
2013,09,30,05,47,995.23
2013,09,30,05,48,995.26
2013,09,30,05,49,995.26
2013,09,30,05,50,995.26
2013,09,30,05,51,995.26
2013,09,30,05,52,995.33
2013,09,30,05,53,995.26
2013,09,30,05,54,995.23
2013,09,30,05,55,995.36
2013,09,30,05,56,995.29
2013,09,30,05,57,995.40
2013,09,30,05,58,995.43
2013,09,30,05,59,995.40
2013,09,30,06,00,995.40
2013,09,30,06,01,995.40
2013,09,30,06,02,995.36
2013,09,30,06,03,995.43
2013,09,30,06,04,995.40
2013,09,30,06,05,995.46
2013,09,30,06,06,995.53
2013,09,30,06,07,995.43
2013,09,30,06,08,995.46
2013,09,30,06,09,995.46
2013,09,30,06,10,995.50
2013,09,30,06,11,995.50
2013,09,30,06,12,995.50
2013,09,30,06,13,995.56
2013,09,30,06,14,995.60
2013,09,30,06,15,995.60
2013,09,30,06,16,995.53
2013,09,30,06,17,995.63
2013,09,30,06,18,995.60
2013,09,30,06,19,995.73
2013,09,30,06,20,995.70
2013,09,30,06,21,995.77
2013,09,30,06,22,995.77
2013,09,30,06,23,995.80
2013,09,30,06,24,995.87
2013,09,30,06,25,995.94
2013,09,30,06,26,995.87
2013,09,30,06,27,995.87
2013,09,30,06,28,995.90
2013,09,30,06,29,995.94
2013,09,30,06,30,995.90
2013,09,30,06,31,995.97
2013,09,30,06,32,995.94
2013,09,30,06,33,995.97
2013,09,30,06,34,995.97
2013,09,30,06,35,996.14
2013,09,30,06,36,996.21
2013,09,30,06,37,996.31
2013,09,30,06,38,996.28
2013,09,30,06,39,996.34
2013,09,30,06,40,996.34
2013,09,30,06,41,996.28
2013,09,30,06,42,996.38
2013,09,30,06,43,996.31
2013,09,30,06,44,996.31
2013,09,30,06,45,996.31
2013,09,30,06,46,996.38
2013,09,30,06,47,996.31
2013,09,30,06,48,996.28
2013,09,30,06,49,996.31
2013,09,30,06,50,996.34
2013,09,30,06,51,996.38
2013,09,30,06,52,996.47
2013,09,30,06,53,996.45
2013,09,30,06,54,996.41
2013,09,30,06,55,996.48
2013,09,30,06,56,996.41
2013,09,30,06,57,996.45
2013,09,30,06,58,996.48
2013,09,30,06,59,996.51
2013,09,30,07,00,996.51
2013,09,30,07,01,996.58
2013,09,30,07,02,996.61
2013,09,30,07,03,996.61
2013,09,30,07,04,996.65
2013,09,30,07,05,996.65
2013,09,30,07,06,996.65
2013,09,30,07,07,996.68
2013,09,30,07,08,996.75
2013,09,30,07,09,996.75
2013,09,30,07,10,996.75
2013,09,30,07,11,996.82
2013,09,30,07,12,996.82
2013,09,30,07,13,996.85
2013,09,30,07,14,996.89
2013,09,30,07,15,996.85
2013,09,30,07,16,996.85
2013,09,30,07,17,996.92
2013,09,30,07,18,996.95
2013,09,30,07,19,996.92
2013,09,30,07,20,996.89
2013,09,30,07,21,996.92
2013,09,30,07,22,996.89
2013,09,30,07,23,996.92
2013,09,30,07,24,996.92
2013,09,30,07,25,996.92
2013,09,30,07,26,997.02
2013,09,30,07,27,997.02
2013,09,30,07,28,997.26
2013,09,30,07,29,997.19
2013,09,30,07,30,997.26
2013,09,30,07,31,997.19
2013,09,30,07,32,997.19
2013,09,30,07,33,997.16
2013,09,30,07,34,997.16
2013,09,30,07,35,997.16
2013,09,30,07,36,997.22
2013,09,30,07,37,997.19
2013,09,30,07,38,997.22
2013,09,30,07,39,997.29
2013,09,30,07,40,997.36
2013,09,30,07,41,997.39
2013,09,30,07,42,997.36
2013,09,30,07,43,997.43
2013,09,30,07,44,997.46
2013,09,30,07,45,997.50
2013,09,30,07,46,997.63
2013,09,30,07,47,997.66
2013,09,30,07,48,997.66
2013,09,30,07,49,997.66
2013,09,30,07,50,997.73
2013,09,30,07,51,997.77
2013,09,30,07,52,997.80
2013,09,30,07,53,997.80
2013,09,30,07,54,997.94
2013,09,30,07,55,997.90
2013,09,30,07,56,997.90
2013,09,30,07,57,997.94
2013,09,30,07,58,998.00
2013,09,30,07,59,997.97
2013,09,30,08,00,997.97
2013,09,30,08,01,997.97
2013,09,30,08,02,997.97
2013,09,30,08,03,998.00
2013,09,30,08,04,998.04
2013,09,30,08,05,998.04
2013,09,30,08,06,998.04
2013,09,30,08,07,998.07
2013,09,30,08,08,998.10
2013,09,30,08,09,998.10
2013,09,30,08,10,998.17
2013,09,30,08,11,998.24
2013,09,30,08,12,998.27
2013,09,30,08,13,998.27
2013,09,30,08,14,998.24
2013,09,30,08,15,998.27
2013,09,30,08,16,998.34
2013,09,30,08,17,998.31
2013,09,30,08,18,998.38
2013,09,30,08,19,998.38
2013,09,30,08,20,998.34
2013,09,30,08,21,998.34
2013,09,30,08,22,998.38
2013,09,30,08,23,998.38
2013,09,30,08,24,998.41
2013,09,30,08,25,998.48
2013,09,30,08,26,998.48
2013,09,30,08,27,998.51
2013,09,30,08,28,998.54
2013,09,30,08,29,998.54
2013,09,30,08,30,998.58
2013,09,30,08,31,998.61
2013,09,30,08,32,998.71
2013,09,30,08,33,998.71
2013,09,30,08,34,998.71
2013,09,30,08,35,998.71
2013,09,30,08,36,998.68
2013,09,30,08,37,998.68
2013,09,30,08,38,998.71
2013,09,30,08,39,998.71
2013,09,30,08,40,998.68
2013,09,30,08,41,998.68
2013,09,30,08,42,998.65
2013,09,30,08,43,998.65
2013,09,30,08,44,998.65
2013,09,30,08,45,998.71
2013,09,30,08,46,998.78
2013,09,30,08,47,998.82
2013,09,30,08,48,998.82
2013,09,30,08,49,998.85
2013,09,30,08,50,998.88
2013,09,30,08,51,998.85
2013,09,30,08,52,998.88
2013,09,30,08,53,998.88
2013,09,30,08,54,998.92
2013,09,30,08,55,998.95
2013,09,30,08,56,998.99
2013,09,30,08,57,999.09
2013,09,30,08,58,999.15
2013,09,30,08,59,999.12
2013,09,30,09,00,999.19
2013,09,30,09,01,999.26
2013,09,30,09,02,999.26
2013,09,30,09,03,999.19
2013,09,30,09,04,999.12
2013,09,30,09,05,999.19
2013,09,30,09,06,999.12
2013,09,30,09,07,999.05
2013,09,30,09,08,999.05
2013,09,30,09,09,999.02
2013,09,30,09,10,999.05
2013,09,30,09,11,998.99
2013,09,30,09,12,999.02
2013,09,30,09,13,999.09
2013,09,30,09,14,999.15
2013,09,30,09,15,999.12
2013,09,30,09,16,999.22
2013,09,30,09,17,999.26
2013,09,30,09,18,999.29
2013,09,30,09,19,999.32
2013,09,30,09,20,999.32
2013,09,30,09,21,999.32
2013,09,30,09,22,999.32
2013,09,30,09,23,999.43
2013,09,30,09,24,999.43
2013,09,30,09,25,999.46
2013,09,30,09,26,999.49
2013,09,30,09,27,999.49
2013,09,30,09,28,999.56
2013,09,30,09,29,999.63
2013,09,30,09,30,999.70
2013,09,30,09,31,999.66
2013,09,30,09,32,999.70
2013,09,30,09,33,999.70
2013,09,30,09,34,999.73
2013,09,30,09,35,999.76
2013,09,30,09,36,999.76
2013,09,30,09,37,999.76
2013,09,30,09,38,999.76
2013,09,30,09,39,999.87
2013,09,30,09,40,999.80
2013,09,30,09,41,999.73
2013,09,30,09,42,999.73
2013,09,30,09,43,999.70
2013,09,30,09,44,999.73
2013,09,30,09,45,999.80
2013,09,30,09,46,999.80
2013,09,30,09,47,999.87
2013,09,30,09,48,999.87
2013,09,30,09,49,999.90
2013,09,30,09,50,999.83
2013,09,30,09,51,999.87
2013,09,30,09,52,999.90
2013,09,30,09,53,1000.00
2013,09,30,09,54,999.97
2013,09,30,09,55,999.97
2013,09,30,09,56,1000.00
2013,09,30,09,57,1000.00
2013,09,30,09,58,1000.03
2013,09,30,09,59,1000.03
2013,09,30,10,00,1000.03
2013,09,30,10,01,1000.07
2013,09,30,10,02,1000.03
2013,09,30,10,03,1000.03
2013,09,30,10,04,1000.00
2013,09,30,10,05,999.97
2013,09,30,10,06,1000.00
2013,09,30,10,07,1000.00
2013,09,30,10,08,1000.03
2013,09,30,10,09,1000.03
2013,09,30,10,10,1000.07
2013,09,30,10,11,1000.07
2013,09,30,10,12,1000.10
2013,09,30,10,13,1000.14
2013,09,30,10,14,1000.14
2013,09,30,10,15,1000.14
2013,09,30,10,16,1000.20
2013,09,30,10,17,1000.24
2013,09,30,10,18,1000.31
2013,09,30,10,19,1000.27
2013,09,30,10,20,1000.20
2013,09,30,10,21,1000.20
2013,09,30,10,22,1000.14
2013,09,30,10,23,1000.14
2013,09,30,10,24,1000.10
2013,09,30,10,25,1000.17
2013,09,30,10,26,1000.17
2013,09,30,10,27,1000.14
2013,09,30,10,28,1000.20
2013,09,30,10,29,1000.20
2013,09,30,10,30,1000.24
2013,09,30,10,31,1000.20
2013,09,30,10,32,1000.24
2013,09,30,10,33,1000.20
2013,09,30,10,34,1000.24
2013,09,30,10,35,1000.31
2013,09,30,10,36,1000.37
2013,09,30,10,37,1000.41
2013,09,30,10,38,1000.51
2013,09,30,10,39,1000.64
2013,09,30,10,40,1000.54
2013,09,30,10,41,1000.54
2013,09,30,10,42,1000.61
2013,09,30,10,43,1000.64
2013,09,30,10,44,1000.71
2013,09,30,10,45,1000.78
2013,09,30,10,46,1000.75
2013,09,30,10,47,1000.71
2013,09,30,10,48,1000.75
2013,09,30,10,49,1000.64
2013,09,30,10,50,1000.61
2013,09,30,10,51,1000.68
2013,09,30,10,52,1000.68
2013,09,30,10,53,1000.75
2013,09,30,10,54,1000.64
2013,09,30,10,55,1000.64
2013,09,30,10,56,1000.64
2013,09,30,10,57,1000.68
2013,09,30,10,58,1000.71
2013,09,30,10,59,1000.71
2013,09,30,11,00,1000.68
2013,09,30,11,01,1000.75
2013,09,30,11,02,1000.71
2013,09,30,11,03,1000.68
2013,09,30,11,04,1000.78
2013,09,30,11,05,1000.81
2013,09,30,11,06,1000.85
2013,09,30,11,07,1000.81
2013,09,30,11,08,1000.88
2013,09,30,11,09,1000.92
2013,09,30,11,10,1001.02
2013,09,30,11,11,1001.08
2013,09,30,11,12,1001.05
2013,09,30,11,13,1001.08
2013,09,30,11,14,1001.05
2013,09,30,11,15,1001.15
2013,09,30,11,16,1001.12
2013,09,30,11,17,1001.15
2013,09,30,11,18,1001.12
2013,09,30,11,19,1001.19
2013,09,30,11,20,1001.15
2013,09,30,11,21,1001.15
2013,09,30,11,22,1001.08
2013,09,30,11,23,1001.19
2013,09,30,11,24,1001.22
2013,09,30,11,25,1001.15
2013,09,30,11,26,1001.25
2013,09,30,11,27,1001.25
2013,09,30,11,28,1001.25
2013,09,30,11,29,1001.25
2013,09,30,11,30,1001.29
2013,09,30,11,31,1001.29
2013,09,30,11,32,1001.29
2013,09,30,11,33,1001.32
2013,09,30,11,34,1001.29
2013,09,30,11,35,1001.29
2013,09,30,11,36,1001.29
2013,09,30,11,37,1001.36
2013,09,30,11,38,1001.36
2013,09,30,11,39,1001.36
2013,09,30,11,40,1001.36
2013,09,30,11,41,1001.36
2013,09,30,11,42,1001.39
2013,09,30,11,43,1001.39
2013,09,30,11,44,1001.42
2013,09,30,11,45,1001.46
2013,09,30,11,46,1001.46
2013,09,30,11,47,1001.46
2013,09,30,11,48,1001.46
2013,09,30,11,49,1001.42
2013,09,30,11,50,1001.42
2013,09,30,11,51,1001.39
2013,09,30,11,52,1001.39
2013,09,30,11,53,1001.39
2013,09,30,11,54,1001.39
2013,09,30,11,55,1001.46
2013,09,30,11,56,1001.46
2013,09,30,11,57,1001.49
2013,09,30,11,58,1001.47
2013,09,30,11,59,1001.56
2013,09,30,12,00,1001.52
2013,09,30,12,01,1001.59
2013,09,30,12,02,1001.63
2013,09,30,12,03,1001.66
2013,09,30,12,04,1001.66
2013,09,30,12,05,1001.66
2013,09,30,12,06,1001.66
2013,09,30,12,07,1001.73
2013,09,30,12,08,1001.69
2013,09,30,12,09,1001.76
2013,09,30,12,10,1001.73
2013,09,30,12,11,1001.73
2013,09,30,12,12,1001.80
2013,09,30,12,13,1001.80
2013,09,30,12,14,1001.80
2013,09,30,12,15,1001.83
2013,09,30,12,16,1001.86
2013,09,30,12,17,1001.86
2013,09,30,12,18,1001.97
2013,09,30,12,19,1002.00
2013,09,30,12,20,1002.03
2013,09,30,12,21,1001.90
2013,09,30,12,22,1001.90
2013,09,30,12,23,1001.86
2013,09,30,12,24,1001.80
2013,09,30,12,25,1001.80
2013,09,30,12,26,1001.86
2013,09,30,12,27,1001.80
2013,09,30,12,28,1001.83
2013,09,30,12,29,1001.80
2013,09,30,12,30,1001.83
2013,09,30,12,31,1001.83
2013,09,30,12,32,1001.83
2013,09,30,12,33,1001.76
2013,09,30,12,34,1001.83
2013,09,30,12,35,1001.83
2013,09,30,12,36,1001.83
2013,09,30,12,37,1001.90
2013,09,30,12,38,1001.93
2013,09,30,12,39,1001.93
2013,09,30,12,40,1001.93
2013,09,30,12,41,1001.93
2013,09,30,12,42,1001.97
2013,09,30,12,43,1001.97
2013,09,30,12,44,1002.08
2013,09,30,12,45,1002.17
2013,09,30,12,46,1002.13
2013,09,30,12,47,1002.24
2013,09,30,12,48,1002.24
2013,09,30,12,49,1002.30
2013,09,30,12,50,1002.27
2013,09,30,12,51,1002.30
2013,09,30,12,52,1002.24
2013,09,30,12,53,1002.27
2013,09,30,12,54,1002.34
2013,09,30,12,55,1002.37
2013,09,30,12,56,1002.41
2013,09,30,12,57,1002.44
2013,09,30,12,58,1002.44
2013,09,30,12,59,1002.41
2013,09,30,13,00,1002.47
2013,09,30,13,01,1002.54
2013,09,30,13,02,1002.47
2013,09,30,13,03,1002.47
2013,09,30,13,04,1002.51
2013,09,30,13,05,1002.54
2013,09,30,13,06,1002.61
2013,09,30,13,07,1002.61
2013,09,30,13,08,1002.61
2013,09,30,13,09,1002.57
2013,09,30,13,10,1002.57
2013,09,30,13,11,1002.57
2013,09,30,13,12,1002.54
2013,09,30,13,13,1002.51
2013,09,30,13,14,1002.54
2013,09,30,13,15,1002.51
2013,09,30,13,16,1002.51
2013,09,30,13,17,1002.47
2013,09,30,13,18,1002.51
2013,09,30,13,19,1002.54
2013,09,30,13,20,1002.61
2013,09,30,13,21,1002.64
2013,09,30,13,22,1002.71
2013,09,30,13,23,1002.71
2013,09,30,13,24,1002.68
2013,09,30,13,25,1002.71
2013,09,30,13,26,1002.71
2013,09,30,13,27,1002.74
2013,09,30,13,28,1002.71
2013,09,30,13,29,1002.74
2013,09,30,13,30,1002.74
2013,09,30,13,31,1002.74
2013,09,30,13,32,1002.78
2013,09,30,13,33,1002.78
2013,09,30,13,34,1002.78
2013,09,30,13,35,1002.81
2013,09,30,13,36,1002.85
2013,09,30,13,37,1002.78
2013,09,30,13,38,1002.85
2013,09,30,13,39,1002.85
2013,09,30,13,40,1002.88
2013,09,30,13,41,1002.91
2013,09,30,13,42,1002.95
2013,09,30,13,43,1002.95
2013,09,30,13,44,1002.88
2013,09,30,13,45,1002.88
2013,09,30,13,46,1002.85
2013,09,30,13,47,1002.88
2013,09,30,13,48,1002.85
2013,09,30,13,49,1002.85
2013,09,30,13,50,1002.91
2013,09,30,13,51,1002.95
2013,09,30,13,52,1002.98
2013,09,30,13,53,1003.01
2013,09,30,13,54,1002.98
2013,09,30,13,55,1003.01
2013,09,30,13,56,1002.98
2013,09,30,13,57,1002.98
2013,09,30,13,58,1002.98
2013,09,30,13,59,1003.01
2013,09,30,14,00,1003.01
2013,09,30,14,01,1003.05
2013,09,30,14,02,1003.08
2013,09,30,14,03,1003.08
2013,09,30,14,04,1003.12
2013,09,30,14,05,1003.08
2013,09,30,14,06,1003.05
2013,09,30,14,07,1003.15
2013,09,30,14,08,1003.18
2013,09,30,14,09,1003.29
2013,09,30,14,10,1003.29
2013,09,30,14,11,1003.29
2013,09,30,14,12,1003.22
2013,09,30,14,13,1003.29
2013,09,30,14,14,1003.18
2013,09,30,14,15,1003.08
2013,09,30,14,16,1002.98
2013,09,30,14,17,1002.98
2013,09,30,14,18,1002.98
2013,09,30,14,19,1003.01
2013,09,30,14,20,1003.01
2013,09,30,14,21,1003.15
2013,09,30,14,22,1003.18
2013,09,30,14,23,1003.15
2013,09,30,14,24,1003.22
2013,09,30,14,25,1003.15
2013,09,30,14,26,1003.15
2013,09,30,14,27,1003.25
2013,09,30,14,28,1003.25
2013,09,30,14,29,1003.39
2013,09,30,14,30,1003.32
2013,09,30,14,31,1003.35
2013,09,30,14,32,1003.39
2013,09,30,14,33,1003.32
2013,09,30,14,34,1003.39
2013,09,30,14,35,1003.39
2013,09,30,14,36,1003.49
2013,09,30,14,37,1003.49
2013,09,30,14,38,1003.56
2013,09,30,14,39,1003.56
2013,09,30,14,40,1003.59
2013,09,30,14,41,1003.66
2013,09,30,14,42,1003.56
2013,09,30,14,43,1003.59
2013,09,30,14,44,1003.66
2013,09,30,14,45,1003.66
2013,09,30,14,46,1003.69
2013,09,30,14,47,1003.69
2013,09,30,14,48,1003.73
2013,09,30,14,49,1003.69
2013,09,30,14,50,1003.66
2013,09,30,14,51,1003.69
2013,09,30,14,52,1003.69
2013,09,30,14,53,1003.73
2013,09,30,14,54,1003.66
2013,09,30,14,55,1003.69
2013,09,30,14,56,1003.69
2013,09,30,14,57,1003.69
2013,09,30,14,58,1003.69
2013,09,30,14,59,1003.69
2013,09,30,15,00,1003.62
2013,09,30,15,01,1003.66
2013,09,30,15,02,1003.69
2013,09,30,15,03,1003.66
2013,09,30,15,04,1003.62
2013,09,30,15,05,1003.59
2013,09,30,15,06,1003.62
2013,09,30,15,07,1003.62
2013,09,30,15,08,1003.69
2013,09,30,15,09,1003.62
2013,09,30,15,10,1003.69
2013,09,30,15,11,1003.73
2013,09,30,15,12,1003.76
2013,09,30,15,13,1003.83
2013,09,30,15,14,1003.83
2013,09,30,15,15,1003.83
2013,09,30,15,16,1003.83
2013,09,30,15,17,1003.79
2013,09,30,15,18,1003.76
2013,09,30,15,19,1003.76
2013,09,30,15,20,1003.73
2013,09,30,15,21,1003.76
2013,09,30,15,22,1003.69
2013,09,30,15,23,1003.73
2013,09,30,15,24,1003.73
2013,09,30,15,25,1003.79
2013,09,30,15,26,1003.86
2013,09,30,15,27,1003.83
2013,09,30,15,28,1003.86
2013,09,30,15,29,1003.96
2013,09,30,15,30,1004.00
2013,09,30,15,31,1004.06
2013,09,30,15,32,1004.13
2013,09,30,15,33,1004.17
2013,09,30,15,34,1004.23
2013,09,30,15,35,1004.23
2013,09,30,15,36,1004.23
2013,09,30,15,37,1004.23
2013,09,30,15,38,1004.30
2013,09,30,15,39,1004.34
2013,09,30,15,40,1004.44
2013,09,30,15,41,1004.37
2013,09,30,15,42,1004.44
2013,09,30,15,43,1004.47
2013,09,30,15,44,1004.50
2013,09,30,15,45,1004.50
2013,09,30,15,46,1004.54
2013,09,30,15,47,1004.47
2013,09,30,15,48,1004.54
2013,09,30,15,49,1004.54
2013,09,30,15,50,1004.54
2013,09,30,15,51,1004.54
2013,09,30,15,52,1004.57
2013,09,30,15,53,1004.54
2013,09,30,15,54,1004.54
2013,09,30,15,55,1004.50
2013,09,30,15,56,1004.54
2013,09,30,15,57,1004.54
2013,09,30,15,58,1004.61
2013,09,30,15,59,1004.71
2013,09,30,16,00,1004.74
2013,09,30,16,01,1004.78
2013,09,30,16,02,1004.84
2013,09,30,16,03,1004.98
2013,09,30,16,04,1004.98
2013,09,30,16,05,1004.95
2013,09,30,16,06,1005.05
2013,09,30,16,07,1005.05
2013,09,30,16,08,1005.08
2013,09,30,16,09,1005.01
2013,09,30,16,10,1004.95
2013,09,30,16,11,1004.74
2013,09,30,16,12,1004.49
2013,09,30,16,13,1004.40
2013,09,30,16,14,1004.40
2013,09,30,16,15,1004.37
2013,09,30,16,16,1004.34
2013,09,30,16,17,1004.37
2013,09,30,16,18,1004.40
2013,09,30,16,19,1004.37
2013,09,30,16,20,1004.47